Flag for Mexico Weather past 2 weeks in Mexico City, Federal District, Mexico

Now
57 °F

Passing clouds.


Feels Like: 57 °F
Forecast: 54 / 75 °F
Wind: 3 mph from East

Location: Mexico City / Licenci

Current Time: May 25, 2015 at 6:51:53 AM

Latest Report: May 25, 2015 at 5:44 AM


Visibility: 8 mi

Pressure: 30.31 "Hg

Humidity: 82%

Dew point: 52 °F

Location of Mexico CityLocation

Historic Weather in Mexico City — Graph

°F

Mexico City temperature yesterday

Maximum temperature yesterday: 73 °F (at 4:52 PM)
Minimum temperature yesterday: 59 °F (at 5:46 AM)
Average temperature yesterday: 64 °F

Past Weeks' High & Low Weather Summary

 TemperatureHumidityPressure
High81 °F (May 10, 2:48 PM)94% (May 12, 8:53 PM)30.44 "Hg (May 12, 8:53 PM)
Low54 °F (May 19, 6:51 AM)23% (May 10, 4:47 PM)29.58 "Hg (May 10, 3:45 PM)
Average65 °F62%30.20 "Hg
* Reported May 10 5:45 AM — May 25 5:44 AM, Mexico City, Weather by CustomWeather, © 2015

Note: Actual official high and low records may vary slightly from our data, if they occured in-between our weather recording intervals... More about our weather records

Advertising

Mexico City weather history for previous 24 hours

 ConditionsComfort  
Time TempWeatherWind HumidityBarometerVisibility
5:44 AM
Mon, May 25
57 °FPassing clouds.3 mph82%30.31 "Hg8 mi
4:42 AM57 °FPassing clouds.6 mph82%30.31 "Hg10 mi
3:48 AM59 °FPassing clouds.6 mph77%29.81 "Hg10 mi
2:47 AM59 °FPassing clouds.3 mph77%30.32 "Hg11 mi
1:46 AM59 °FPassing clouds.No wind77%30.34 "Hg12 mi
12:43 AM59 °FPassing clouds.3 mph77%29.86 "Hg12 mi
11:41 PM
Sun, May 24
61 °FPartly cloudy.No wind72%30.37 "Hg12 mi
10:42 PM61 °FPartly cloudy.8 mph72%30.38 "Hg15 mi
9:43 PM61 °FPartly cloudy.13 mph72%29.88 "Hg12 mi
8:45 PM63 °FMore clouds than sun.7 mph59%30.35 "Hg12 mi
6:02 PM64 °FBroken clouds.25 mph56%30.27 "Hg8 mi
4:52 PM73 °FPartly sunny.3 mph41%30.26 "Hg8 mi
3:45 PM68 °FCloudy.17 mph60%29.77 "Hg6 mi
2:43 PM68 °FCloudy.10 mph60%30.30 "Hg6 mi
1:59 PM66 °FBroken clouds.12 mph64%30.31 "Hg6 mi
1:43 PM68 °FRain. Broken clouds.12 mph60%30.32 "Hg5 mi
12:49 PM72 °FPartly sunny.12 mph47%29.80 "Hg6 mi
11:43 AM72 °FPartly sunny.5 mph47%30.35 "Hg6 mi
10:42 AM70 °FScattered clouds.No wind50%30.35 "Hg6 mi
10:22 AM68 °FScattered clouds.No wind53%30.36 "Hg6 mi
9:47 AM66 °FPassing clouds.3 mph60%29.84 "Hg6 mi
9:22 AM64 °FPassing clouds.5 mph64%30.35 "Hg6 mi
9:04 AM64 °FScattered clouds.No wind64%30.35 "Hg6 mi
8:42 AM61 °FScattered clouds.No wind72%30.35 "Hg6 mi
8:24 AM61 °FScattered clouds.3 mph72%30.35 "Hg6 mi
7:42 AM61 °FPassing clouds.No wind68%30.33 "Hg7 mi
7:23 AM61 °FClear.No wind68%30.32 "Hg7 mi
6:48 AM59 °FClear.No wind72%29.84 "Hg7 mi
Weather by CustomWeather, © 2015

See weather overviewHow to use our weather pages